DW6368 Weather Reports


Display with metric or nautical units.
time (UTC)temp
F
wind
direction
speed
MPH
gust
MPH
rain 1hr
in
rain 24hr
in
rain mn
in
humidity
%
barometer
mb
20260905135306 60 351 0.0 1.0 0.00 0.00 0.00 98 1012.2
20260905134303 60 44 0.0 1.0 0.00 0.00 0.00 98 1012.1
20260905133324 60 325 0.0 1.0 0.00 0.00 0.00 98 1012.1
20260905132305 60 336 0.0 1.0 0.00 0.00 0.00 97 1011.8
20260905131303 60 35 0.0 1.0 0.00 0.00 0.00 98 1011.8
20260905130303 60 9 0.0 0.0 0.00 0.00 0.00 97 1011.7
20260905125305 61 9 0.0 1.0 0.00 0.00 0.00 97 1011.7
20260905124303 61 309 0.0 1.0 0.00 0.00 0.00 97 1011.6
20260905123303 61 325 0.0 1.0 0.00 0.00 0.00 97 1011.7
20260905122306 61 34 0.0 1.0 0.00 0.00 0.00 97 1011.7
20260905121303 61 28 0.0 1.0 0.00 0.00 0.00 97 1011.8
20260905120303 62 59 0.0 1.0 0.00 0.00 0.00 97 1011.9
20260905115306 62 51 0.0 1.0 0.00 0.00 0.00 97 1011.9
20260905114302 62 51 0.0 1.0 0.00 0.00 0.00 97 1011.9
20260905113303 62 4 0.0 1.0 0.00 0.00 0.00 97 1011.7
20260905112305 62 51 0.0 1.0 0.00 0.00 0.00 97 1011.8
20260905111303 62 51 0.0 1.0 0.00 0.00 0.00 97 1011.9
20260905110302 62 37 0.0 1.0 0.00 0.00 0.00 97 1012.0
20260905105306 62 51 0.0 1.0 0.00 0.00 0.00 97 1012.0
20260905104324 62 53 0.0 1.0 0.00 0.00 0.00 96 1012.0
20260905103325 63 68 0.0 1.0 0.00 0.00 0.00 97 1012.0
20260905102306 63 9 0.0 1.0 0.00 0.00 0.00 97 1012.0
20260905101303 63 37 0.0 1.0 0.00 0.00 0.00 96 1012.1
20260905095345 63 345 0.0 1.0 0.00 0.00 0.00 96 1012.2
20260905094302 63 9 0.0 1.0 0.00 0.00 0.00 97 1012.0
20260905093303 63 9 0.0 1.0 0.00 0.00 0.00 96 1012.1
20260905092323 64 9 0.0 1.0 0.00 0.00 0.00 96 1012.0
20260905091303 64 68 0.0 1.0 0.00 0.00 0.00 96 1012.0
20260905090303 64 51 0.0 1.0 0.00 0.00 0.00 95 1012.1
20260905085305 64 93 0.0 0.0 0.00 0.00 0.00 95 1012.1
20260905084303 64 51 0.0 1.0 0.00 0.00 0.00 96 1012.1
20260905083303 65 349 0.0 1.0 0.00 0.00 0.00 96 1012.3
20260905082306 65 5 0.0 1.0 0.00 0.00 0.00 95 1012.3
20260905081303 65 35 0.0 1.0 0.00 0.00 0.00 96 1012.4
20260905080323 65 15 0.0 1.0 0.00 0.00 0.00 95 1012.4
20260905075306 65 51 0.0 1.0 0.00 0.00 0.00 95 1012.5
20260905074303 65 51 0.0 1.0 0.00 0.00 0.00 94 1012.3
20260905073303 65 13 0.0 1.0 0.00 0.00 0.00 94 1012.3
20260905072324 65 22 0.0 1.0 0.00 0.00 0.00 94 1012.3
20260905071303 65 122 0.0 1.0 0.00 0.00 0.00 94 1012.3
20260905070324 65 69 0.0 1.0 0.00 0.00 0.00 93 1012.3
20260905065306 66 51 0.0 1.0 0.00 0.00 0.00 93 1012.2
20260905064303 66 51 0.0 1.0 0.00 0.00 0.00 93 1012.1
20260905063303 66 93 0.0 1.0 0.00 0.00 0.00 92 1012.1
20260905062305 66 51 0.0 1.0 0.00 0.00 0.00 92 1012.1
20260905061303 67 56 0.0 1.0 0.00 0.00 0.00 92 1012.0
20260905060303 67 51 0.0 1.0 0.00 0.00 0.00 91 1012.1
20260905055323 67 9 0.0 1.0 0.00 0.00 0.00 91 1012.1
20260905054303 67 51 0.0 1.0 0.00 0.00 0.00 90 1012.1
20260905052324 68 9 0.0 1.0 0.00 0.00 0.00 90 1012.0
20260905050303 69 25 0.0 1.0 0.00 0.00 0.00 89 1012.0
20260905045324 69 38 0.0 1.0 0.00 0.00 0.00 88 1012.0
20260905044302 69 51 0.0 1.0 0.00 0.00 0.00 88 1012.0
20260905043324 69 53 0.0 1.0 0.00 0.00 0.00 87 1011.6
20260905042324 70 10 0.0 2.0 0.00 0.00 0.00 87 1011.6
20260905041303 70 51 0.0 2.0 0.00 0.00 0.00 86 1011.6
20260905040303 70 308 0.0 2.0 0.00 0.00 0.00 86 1011.5
20260905035306 71 303 1.0 3.0 0.00 0.00 0.00 85 1011.4
20260905034303 71 301 2.0 3.0 0.00 0.00 0.00 85 1011.3
20260905033324 71 317 1.0 6.0 0.00 0.00 0.00 85 1011.2
20260905032306 71 305 1.0 3.0 0.00 0.00 0.00 84 1011.1
20260905031303 71 305 1.0 5.0 0.00 0.00 0.00 83 1010.9
20260905030302 71 307 2.0 4.0 0.00 0.00 0.00 83 1010.9
20260905025306 72 310 1.0 3.0 0.00 0.00 0.00 83 1010.8
20260905024303 72 9 0.0 1.0 0.00 0.00 0.00 82 1010.7
20260905023303 73 88 0.0 3.0 0.00 0.00 0.00 81 1010.6
20260905022306 74 129 1.0 3.0 0.00 0.00 0.00 80 1010.9
20260905021303 74 126 1.0 4.0 0.00 0.00 0.00 78 1010.8
20260905020303 75 159 1.0 3.0 0.00 0.00 0.00 76 1010.9
20260905015306 76 197 1.0 3.0 0.00 0.00 0.00 75 1010.8
20260905014303 76 191 1.0 3.0 0.00 0.00 0.00 75 1010.8
20260905013303 76 216 2.0 5.0 0.00 0.00 0.00 76 1010.8
20260905012306 76 211 1.0 5.0 0.00 0.00 0.00 75 1011.0
20260905011303 77 203 2.0 5.0 0.00 0.00 0.00 74 1011.0
20260905010302 77 242 1.0 4.0 0.00 0.00 0.00 72 1010.9
20260905005306 77 234 1.0 6.0 0.00 0.00 0.00 71 1011.0
20260905004303 78 252 3.0 7.0 0.00 0.00 0.00 69 1011.2
20260905003324 79 220 2.0 5.0 0.00 0.00 0.00 67 1011.1
20260905002324 80 218 2.0 5.0 0.00 0.00 0.00 66 1011.2
20260905001324 80 224 2.0 7.0 0.00 0.00 0.00 66 1011.1
20260905000303 81 214 2.0 5.0 0.00 0.00 0.00 65 1011.1
20260904235306 81 242 2.0 7.0 0.00 0.00 0.00 66 1011.1
20260904234303 81 227 2.0 6.0 0.00 0.00 0.00 66 1011.4
20260904233302 81 215 2.0 9.0 0.00 0.00 0.00 65 1011.3
20260904232306 81 205 2.0 6.0 0.00 0.00 0.00 65 1011.3
20260904231303 81 242 2.0 8.0 0.00 0.00 0.00 66 1011.3
20260904230304 81 223 2.0 6.0 0.00 0.00 0.00 64 1011.3
20260904225305 81 242 2.0 8.0 0.00 0.00 0.00 65 1011.4
20260904224302 82 224 4.0 7.0 0.00 0.00 0.00 65 1011.5
20260904223303 82 238 4.0 7.0 0.00 0.00 0.00 64 1011.6
20260904222306 82 225 3.0 7.0 0.00 0.00 0.00 65 1011.5
20260904221304 81 248 2.0 8.0 0.00 0.00 0.00 65 1011.4
20260904220303 82 198 2.0 10.0 0.00 0.00 0.00 65 1011.5
20260904215324 82 206 2.0 10.0 0.00 0.00 0.00 65 1011.5
20260904214303 82 202 2.0 9.0 0.00 0.00 0.00 66 1011.5
20260904213303 82 201 1.0 9.0 0.00 0.00 0.00 66 1011.6
20260904212306 82 244 3.0 7.0 0.00 0.00 0.00 65 1011.6
20260904211303 82 209 3.0 7.0 0.00 0.00 0.00 66 1011.7
20260904210302 81 228 2.0 6.0 0.00 0.00 0.00 67 1011.7
20260904205305 81 173 2.0 7.0 0.00 0.00 0.00 68 1011.7
20260904204303 80 180 2.0 9.0 0.00 0.00 0.00 68 1011.8
20260904203303 80 241 4.0 7.0 0.00 0.00 0.00 68 1011.9
20260904202305 80 198 1.0 11.0 0.00 0.00 0.00 69 1012.0
20260904201302 80 244 3.0 7.0 0.00 0.00 0.00 68 1012.1
20260904200303 80 237 3.0 7.0 0.00 0.00 0.00 68 1012.1
20260904195305 80 202 2.0 10.0 0.00 0.00 0.00 70 1012.2
20260904194302 80 242 3.0 10.0 0.00 0.00 0.00 69 1012.3
20260904193303 80 220 2.0 6.0 0.00 0.00 0.00 68 1012.4
20260904192324 80 217 3.0 10.0 0.00 0.00 0.00 68 1012.5
20260904191324 81 220 2.0 5.0 0.00 0.00 0.00 68 1012.6
20260904190302 81 176 2.0 5.0 0.00 0.00 0.00 67 1012.8
20260904185306 80 216 2.0 6.0 0.00 0.00 0.00 68 1012.9
20260904184302 80 181 2.0 7.0 0.00 0.00 0.00 68 1013.0
20260904183324 80 212 1.0 6.0 0.00 0.00 0.00 69 1012.9
20260904182306 79 154 1.0 5.0 0.00 0.00 0.00 69 1012.9
20260904181303 78 187 1.0 7.0 0.00 0.00 0.00 71 1013.0
20260904180302 77 219 2.0 6.0 0.00 0.00 0.00 72 1012.9
20260904175305 77 217 2.0 7.0 0.00 0.00 0.00 71 1013.0
20260904174303 77 245 3.0 7.0 0.00 0.00 0.00 71 1013.0
20260904173302 78 222 3.0 7.0 0.00 0.00 0.00 68 1012.9
20260904172305 79 223 2.0 7.0 0.00 0.00 0.00 68 1012.9
20260904171303 79 170 1.0 4.0 0.00 0.00 0.00 68 1012.8
20260904170303 78 212 2.0 5.0 0.00 0.00 0.00 71 1012.9
20260904165305 77 240 1.0 4.0 0.00 0.00 0.00 71 1012.7
20260904164302 77 211 1.0 5.0 0.00 0.00 0.00 72 1012.6
20260904163303 76 97 2.0 5.0 0.00 0.00 0.00 73 1012.4
20260904162306 75 35 1.0 2.0 0.00 0.00 0.00 73 1012.5
20260904161303 75 195 1.0 4.0 0.00 0.00 0.00 76 1012.4
20260904160303 74 143 2.0 5.0 0.00 0.00 0.00 76 1012.3
20260904155306 73 61 1.0 4.0 0.00 0.00 0.00 77 1012.2
20260904154302 74 167 2.0 4.0 0.00 0.00 0.00 78 1012.2
20260904153303 73 159 1.0 3.0 0.00 0.00 0.00 79 1012.3
20260904152306 72 70 2.0 4.0 0.00 0.00 0.00 81 1012.2
20260904151302 71 110 2.0 4.0 0.00 0.00 0.00 83 1012.3
20260904150303 70 108 1.0 4.0 0.00 0.00 0.00 85 1012.3
20260904145305 68 129 1.0 5.0 0.00 0.00 0.00 88 1012.3
20260904144303 67 137 2.0 5.0 0.00 0.00 0.00 90 1012.2
20260904143323 66 110 1.0 5.0 0.00 0.00 0.00 93 1012.1
20260904142306 65 98 2.0 4.0 0.00 0.00 0.00 95 1012.0
20260904141303 64 111 1.0 3.0 0.00 0.00 0.00 96 1011.8
20260904140302 64 105 1.0 2.0 0.00 0.00 0.00 96 1011.7